Wind_Speed
49 48 48 48 48 48 47 47 47 47 46 44 43 41 40 38 37 36 35 35 35 36 38 39 38 37 37 37 37 37 36 35 35 33 32 33 32 31 30 31 32 32 31 30 30 30 29 29 29 27 26 25 25 25 25 24 23 22 24 24 25 26 26 26 27 27 27 27 28 29 28 26 26 25 25 24 24 23 20 20 21 22 21 20 19 18 18 18
51 50 50 49 49 48 48 48 48 48 48 47 46 44 43 41 40 38 37 36 35 36 37 39 39 38 38 37 37 38 37 36 35 33 34 35 33 32 32 32 33 32 31 31 31 31 31 31 30 29 28 27 26 26 26 25 23 23 24 25 27 27 27 26 27 27 27 28 28 28 27 26 25 25 24 24 24 21 19 21 23 23 22 21 19 18 17 18
52 52 52 51 50 50 49 49 49 50 49 49 48 47 45 44 42 41 39 38 37 36 37 38 39 39 39 38 38 38 38 38 36 33 35 36 34 33 33 33 33 33 32 32 32 32 32 32 31 30 29 28 28 27 27 25 24 24 25 27 28 28 28 27 27 27 28 28 28 27 26 25 25 24 24 23 22 20 21 23 24 22 21 20 18 17 18 19
54 53 53 53 52 51 51 50 50 50 51 51 50 49 48 46 45 43 41 40 39 38 37 38 39 40 40 39 39 38 39 38 37 35 36 37 34 34 34 34 33 33 33 33 33 33 33 31 30 30 29 29 28 28 27 25 25 26 27 29 30 29 28 28 27 27 27 27 26 26 25 24 24 23 22 21 20 20 23 24 24 23 21 19 18 18 18 19
55 55 55 54 54 53 53 52 51 51 52 52 51 50 49 48 47 45 43 42 41 39 39 38 39 41 41 40 39 39 39 39 38 36 36 37 35 34 35 34 34 34 33 33 33 33 32 31 31 31 30 29 28 26 25 25 26 27 29 31 31 30 29 28 28 27 27 26 25 25 24 24 23 21 20 19 19 22 24 24 23 23 21 19 19 18 19 20
55 55 56 55 55 55 54 53 53 52 52 52 52 52 51 50 48 47 45 44 43 41 40 39 39 41 41 41 40 39 40 40 40 38 37 38 36 34 35 35 34 34 34 33 33 33 32 32 32 31 30 30 28 26 25 25 26 29 32 32 31 30 30 29 29 28 28 27 25 25 24 24 22 20 19 19 21 23 24 23 23 22 21 19 18 18 20 23
54 55 55 56 56 56 55 55 54 54 53 53 53 53 52 51 50 48 46 45 44 43 42 41 40 41 42 42 41 40 40 40 41 40 39 39 37 35 35 35 34 34 34 33 32 32 32 32 32 31 31 30 28 27 26 27 28 31 32 31 30 29 29 29 28 28 28 26 25 25 24 24 22 21 20 20 23 24 24 23 22 21 19 17 17 19 22 23
51 53 54 55 56 56 56 56 55 55 54 54 53 53 52 52 51 49 48 46 45 44 43 43 42 41 42 43 42 42 40 40 42 41 40 40 38 37 36 36 35 34 34 33 33 32 32 32 32 31 30 29 28 29 30 30 30 30 31 30 29 29 28 28 28 28 27 25 24 24 25 24 23 22 21 21 23 24 23 22 20 19 17 16 17 21 23 22
48 50 52 54 55 55 56 56 55 55 54 54 54 53 53 52 52 50 49 47 46 45 44 44 43 42 43 43 43 42 40 41 42 41 41 41 40 38 37 37 36 35 35 34 34 33 33 33 32 31 31 30 30 32 32 32 30 30 30 30 29 29 28 28 28 27 26 24 24 24 23 23 24 22 19 21 23 22 21 19 18 17 16 16 19 21 22 21
47 48 49 51 53 54 55 56 56 55 54 54 54 54 54 53 52 51 50 48 47 45 44 44 44 43 43 44 44 42 41 42 42 42 42 42 41 39 38 38 37 36 36 35 34 33 33 33 32 33 33 32 33 34 33 31 30 30 31 31 30 30 29 29 28 27 25 23 23 22 22 23 24 20 19 21 22 20 19 18 17 16 16 17 19 20 20 21
49 49 50 50 52 53 54 55 55 55 55 54 54 54 54 53 53 52 50 49 47 45 44 44 44 43 43 44 43 42 42 43 42 43 43 42 42 41 39 38 37 37 36 36 35 35 34 34 34 34 34 34 34 34 33 31 30 31 32 31 31 30 30 29 27 25 24 22 21 21 23 25 24 20 20 21 20 19 18 17 16 16 16 18 19 18 19 22
51 51 51 52 52 53 54 54 55 55 55 55 55 55 54 54 53 52 50 49 47 45 45 44 44 44 43 43 42 42 43 44 43 43 43 43 42 41 40 39 38 37 37 36 36 36 35 35 35 35 35 34 34 34 32 30 31 32 32 31 31 30 28 26 23 23 21 19 19 21 24 25 23 21 21 21 19 17 16 15 15 16 18 18 18 16 18 21
52 53 53 53 54 54 55 55 56 56 56 56 56 55 55 54 53 51 50 48 46 45 44 44 44 44 43 42 42 43 44 44 43 42 43 43 43 41 40 39 39 38 38 37 37 36 36 36 35 34 34 34 34 33 31 30 31 32 32 32 30 27 24 21 21 21 18 17 20 23 25 24 22 22 22 20 18 16 16 15 15 17 18 17 16 15 17 20
53 54 54 55 55 55 56 57 57 57 56 56 56 55 54 53 52 50 49 47 46 45 44 44 44 44 43 41 42 45 45 43 42 41 42 43 43 42 41 40 39 39 39 39 38 37 37 36 35 34 34 33 32 31 30 30 31 32 32 30 27 23 20 19 20 20 18 20 23 24 24 22 22 22 22 20 18 17 17 16 17 18 18 16 15 15 18 20
53 54 55 56 56 56 56 56 57 56 56 55 54 53 53 52 50 49 48 46 45 44 43 43 43 43 42 41 44 45 42 41 42 43 43 43 43 43 41 40 40 40 40 39 38 37 36 36 35 34 33 32 30 30 30 30 31 32 30 27 23 19 19 22 23 22 22 24 24 23 23 23 23 23 22 20 19 18 17 17 17 17 17 15 13 15 18 20
53 54 55 56 56 56 55 55 55 54 53 52 51 51 50 49 48 47 46 45 44 43 43 43 43 43 41 41 45 44 41 42 43 45 46 45 44 43 43 42 40 40 40 40 38 37 35 34 34 33 32 31 30 31 30 30 30 30 28 24 21 20 24 28 27 25 26 25 23 22 23 23 23 23 23 22 21 19 17 17 17 18 16 13 13 16 18 19
53 54 54 55 55 55 54 54 52 51 50 49 48 48 47 47 46 46 45 44 43 42 42 42 42 42 41 42 44 42 41 43 44 45 47 47 44 42 43 42 41 40 40 40 38 36 35 34 33 32 31 30 31 31 31 30 27 26 26 23 22 26 31 32 30 29 30 27 23 22 24 24 23 23 23 22 21 19 18 18 18 19 17 13 15 18 18 17
53 53 53 54 54 53 53 51 49 48 47 46 46 46 45 45 45 44 44 43 43 42 42 42 42 42 41 42 43 42 42 44 46 46 47 48 46 42 42 42 42 41 40 40 38 37 36 34 33 32 31 32 32 32 31 28 26 26 26 25 28 32 33 32 31 31 30 27 24 24 24 24 23 23 22 20 20 19 19 19 19 19 18 15 16 17 16 14
52 52 52 52 51 50 50 48 46 45 44 44 44 44 43 44 44 43 43 43 42 41 41 41 41 41 41 42 43 44 45 45 47 48 45 46 47 43 42 42 42 41 40 40 39 38 36 35 34 33 34 35 34 32 30 29 29 29 30 30 33 35 34 32 31 31 29 27 26 26 25 24 23 22 19 17 18 20 20 21 21 20 19 18 17 16 12 12
51 51 50 49 48 47 46 45 43 42 42 42 42 42 42 42 42 43 43 42 41 40 40 41 41 41 42 43 44 44 44 44 45 47 45 44 45 44 43 42 41 41 40 40 39 38 37 35 35 35 35 36 34 33 31 32 32 32 33 34 35 35 34 32 31 31 29 27 27 27 25 22 19 17 17 17 19 22 22 22 22 21 19 18 17 14 11 13
49 48 47 46 45 44 42 41 40 40 40 40 40 40 40 42 43 43 42 41 40 40 40 40 41 42 42 43 44 43 43 42 42 45 45 44 44 44 44 43 41 40 39 39 39 38 37 37 36 36 36 35 35 34 33 32 33 33 34 35 34 33 32 31 32 32 30 28 28 28 24 19 15 14 17 21 24 24 22 21 21 21 20 18 16 15 14 16
45 45 44 44 43 41 38 38 38 38 38 38 38 39 41 42 42 42 41 41 40 40 39 39 39 39 40 42 43 43 43 40 39 43 45 45 45 45 44 44 41 39 38 39 38 38 38 37 34 33 33 34 34 32 31 32 33 34 35 34 32 30 30 30 30 30 30 29 29 27 23 19 15 15 19 24 25 25 21 19 21 21 20 20 19 18 18 20
41 41 40 40 39 38 37 36 36 36 36 36 37 39 41 41 41 40 40 39 39 39 39 38 37 36 39 42 42 42 42 38 37 41 44 44 45 45 44 43 41 39 39 38 38 38 36 32 30 31 33 34 34 32 31 32 34 34 34 33 29 28 28 29 29 30 31 30 28 26 24 21 16 16 22 25 23 23 20 19 21 21 21 21 21 19 19 22
37 36 37 38 37 36 36 35 34 35 36 37 38 40 39 38 39 38 38 38 38 39 38 38 37 37 40 44 44 42 40 38 38 41 43 43 44 44 44 42 40 40 39 39 39 37 32 29 31 34 36 36 36 34 33 35 35 35 34 31 28 28 29 29 30 32 32 31 29 28 26 23 18 19 24 25 23 21 19 20 22 22 21 21 21 21 21 23
34 33 34 35 36 36 36 34 34 36 37 38 38 37 36 36 36 37 38 38 38 38 39 39 38 38 42 46 44 41 39 38 39 42 43 42 42 42 42 41 40 40 40 40 38 35 31 32 35 37 37 37 36 35 35 36 36 36 35 31 29 30 30 30 32 34 33 31 30 29 27 24 22 23 25 26 23 19 17 19 22 22 22 22 22 23 23 24
31 32 33 34 34 35 36 34 34 37 38 37 36 34 34 34 34 36 37 37 38 39 38 38 36 36 43 44 38 37 39 38 40 43 42 41 40 40 39 39 39 40 39 38 36 34 34 36 36 36 36 36 36 35 35 36 37 36 34 30 30 31 31 33 34 33 31 29 29 29 27 25 26 26 26 26 24 19 16 18 21 23 22 21 20 21 23 24
30 32 33 32 33 35 37 36 35 36 37 36 34 33 33 33 34 35 36 36 36 37 37 35 35 36 40 38 33 35 37 37 40 43 41 39 39 40 39 38 38 37 38 38 35 35 36 36 36 36 36 36 36 36 35 36 36 34 30 29 31 32 32 34 35 33 31 30 30 29 27 27 27 28 27 27 26 23 20 19 21 23 23 20 19 20 22 23
29 30 32 32 31 33 38 39 37 36 36 35 34 34 34 33 33 35 35 35 34 36 35 34 36 37 36 34 33 32 32 35 38 40 39 37 39 40 40 39 36 35 36 35 34 35 35 33 34 36 35 35 35 34 35 35 34 32 29 29 31 33 35 36 36 34 32 31 30 30 29 29 29 29 29 28 28 27 25 23 23 24 24 23 22 22 23 24
26 30 33 32 31 33 37 38 35 35 37 36 35 35 34 33 34 35 36 34 32 33 34 35 38 37 34 34 33 30 32 34 33 35 36 36 37 38 37 36 35 35 34 32 31 33 33 34 35 36 36 35 33 33 35 35 33 31 30 29 31 34 36 37 37 35 34 33 31 32 32 31 31 32 31 30 30 29 29 28 26 26 26 26 26 26 26 26
27 29 32 32 32 33 36 38 34 34 37 38 36 35 35 35 35 36 36 33 30 30 33 35 36 35 33 34 33 32 33 33 32 34 35 34 35 35 34 34 36 36 34 31 32 34 34 35 36 35 35 33 32 33 33 32 32 31 31 31 32 33 35 37 37 36 35 34 33 34 33 32 33 34 34 33 31 31 32 31 29 27 27 27 28 28 26 26
27 28 31 34 33 33 36 38 35 35 37 37 36 36 37 37 36 37 35 32 28 28 33 35 33 33 32 31 31 34 35 33 32 36 36 35 35 34 35 37 38 38 35 34 34 35 34 35 34 33 32 32 32 33 32 31 31 31 32 32 33 33 34 37 39 38 37 36 36 36 35 35 36 37 36 34 33 34 34 34 33 31 29 29 29 27 25 26
27 29 34 35 33 33 37 38 36 36 36 36 37 38 38 37 38 37 33 31 28 26 30 32 30 30 29 26 27 32 33 32 33 35 36 36 35 34 35 36 37 37 35 34 34 33 33 33 32 31 32 33 33 33 32 31 30 30 32 33 34 35 35 38 41 41 39 38 38 38 37 38 38 38 37 36 35 36 36 36 36 34 32 30 30 27 25 25
27 32 35 34 32 34 36 36 34 35 36 38 38 38 39 38 37 35 32 31 29 26 27 28 24 25 27 28 29 31 30 30 31 33 34 34 32 32 34 34 34 33 30 30 31 31 31 31 32 32 33 34 34 33 33 32 31 31 33 34 36 36 37 40 43 43 42 41 40 40 39 39 39 38 38 38 38 38 37 37 36 35 33 31 30 28 26 26
29 34 35 34 33 33 34 34 34 37 39 40 39 39 40 37 34 32 31 31 29 26 27 26 23 24 25 27 29 31 31 30 30 31 31 32 32 32 34 35 35 32 29 29 31 32 32 32 33 33 34 35 35 34 32 30 30 30 32 33 34 34 36 39 43 44 44 43 42 41 40 40 41 40 40 40 39 37 35 34 32 32 30 28 27 27 25 25
30 33 34 33 32 32 33 34 37 39 40 39 40 40 37 34 32 31 30 31 29 28 28 29 28 26 23 24 25 27 27 27 28 28 26 26 29 30 32 33 32 30 30 31 33 33 33 33 33 33 33 34 32 30 29 27 26 28 31 32 31 31 31 33 39 43 43 43 42 42 42 43 43 43 42 40 36 33 31 30 29 27 26 24 24 24 24 24
31 32 33 32 32 33 35 37 38 39 39 39 39 37 34 31 30 29 29 30 29 30 32 33 32 28 24 25 24 24 25 25 26 26 24 23 25 27 28 28 28 27 28 31 32 32 32 32 32 31 31 30 27 24 24 24 25 27 30 30 29 30 29 30 34 38 39 39 39 40 41 42 42 40 38 35 31 29 29 28 27 25 24 23 22 22 22 22
31 32 32 33 34 35 37 38 38 38 38 37 35 34 32 29 28 29 29 28 30 33 34 33 34 32 28 26 26 27 28 28 28 26 25 27 28 29 29 29 28 27 27 29 30 31 32 31 31 30 28 26 24 22 21 22 25 26 26 24 26 29 30 31 33 34 34 34 35 36 37 39 39 37 35 32 28 26 26 26 26 25 23 23 22 21 21 21
31 32 33 34 36 38 38 38 37 37 36 34 34 33 31 29 29 28 27 28 32 33 32 33 34 33 30 26 26 29 30 29 28 26 27 29 30 31 32 31 31 30 30 31 32 32 33 32 31 30 27 24 24 24 24 24 26 27 25 23 25 28 30 32 34 34 34 33 34 35 35 37 37 35 34 33 30 26 25 24 24 23 22 21 20 20 20 21
31 32 34 37 38 38 37 36 35 35 34 34 34 33 32 30 30 28 26 28 32 31 30 32 33 33 30 27 27 29 29 27 27 26 28 30 29 30 31 31 32 31 31 33 33 32 32 33 31 29 28 26 26 27 27 27 27 27 26 26 27 28 29 30 31 32 32 33 34 35 35 35 34 34 34 33 32 28 25 23 21 20 20 20 20 20 20 21
32 34 36 37 37 37 35 35 35 34 34 34 33 33 33 30 29 28 26 29 32 31 31 32 33 34 34 31 31 31 28 26 26 26 27 29 28 28 30 30 30 31 31 32 32 31 31 33 32 30 29 28 28 28 28 29 28 25 25 27 30 31 30 29 29 29 29 29 30 33 34 33 33 33 33 31 29 27 24 21 20 20 21 21 21 21 21 21
33 35 36 35 35 35 34 34 34 33 34 33 31 32 32 30 31 30 28 30 33 32 32 33 35 36 36 34 34 33 30 28 27 26 26 28 28 29 29 28 28 30 31 31 32 31 31 33 32 31 31 30 29 28 27 28 28 26 25 26 29 32 31 30 29 29 29 27 26 29 30 30 32 32 30 28 27 25 22 21 20 20 20 20 21 21 21 21
33 34 35 35 35 35 35 35 33 34 34 31 30 33 32 33 34 32 31 34 34 32 31 32 33 35 35 34 33 32 30 29 27 25 25 26 26 26 27 27 27 28 30 31 31 31 31 32 32 30 32 33 31 27 25 26 28 28 27 26 28 30 31 31 30 28 28 26 26 27 28 30 32 30 28 27 25 23 22 20 19 19 19 20 21 22 22 21
29 30 32 35 36 34 34 34 33 34 33 29 32 35 34 36 36 34 34 35 33 31 30 29 31 32 32 32 31 31 30 29 27 24 23 23 22 22 24 26 26 27 28 30 31 31 31 33 33 31 31 33 32 29 26 26 27 28 29 28 28 29 31 31 30 28 27 26 26 26 28 30 31 28 27 26 23 22 21 20 19 20 20 20 20 21 21 20
26 28 29 31 34 33 32 34 34 34 32 30 34 36 35 38 38 35 36 35 31 31 29 28 28 29 29 31 30 30 31 30 28 27 24 22 22 22 22 24 25 26 27 29 31 31 31 33 35 33 31 33 34 33 31 29 27 28 29 29 28 29 30 30 30 29 28 28 27 27 28 30 28 28 28 26 24 23 22 20 19 19 18 18 18 19 20 19
23 27 29 29 31 31 32 34 35 36 33 33 37 38 38 39 37 36 37 35 32 31 30 28 28 27 28 30 29 29 30 28 27 27 26 24 23 24 23 23 24 25 27 28 29 30 30 32 34 33 32 32 31 31 32 31 29 29 29 29 29 29 30 31 31 30 30 29 29 29 30 29 28 28 28 27 26 25 23 22 20 18 17 16 16 17 18 19
24 26 28 29 31 31 32 34 37 37 34 34 37 39 40 39 37 36 36 34 32 30 29 29 29 29 29 30 30 29 29 27 25 24 24 23 23 24 23 23 23 24 26 27 28 29 30 32 34 34 32 31 30 29 30 30 30 30 30 30 29 29 30 31 32 33 32 32 32 32 32 31 30 29 29 28 27 26 25 24 23 22 21 19 18 18 19 20
24 26 27 30 31 32 32 35 38 36 32 33 36 38 40 39 37 36 34 32 30 29 29 30 30 30 30 31 31 30 29 27 25 24 24 23 22 22 23 24 24 24 24 25 26 27 29 31 33 34 34 33 33 32 31 30 30 31 32 31 31 31 31 31 33 34 34 34 35 35 34 33 32 31 30 29 28 27 26 26 26 25 24 22 21 21 21 21
24 26 28 30 31 33 34 37 40 35 29 32 36 37 39 39 37 35 33 29 26 27 30 31 31 31 32 31 31 29 28 27 25 25 25 23 21 20 21 23 24 25 24 24 25 26 27 28 30 32 33 34 35 34 33 32 31 32 33 32 31 32 32 32 33 35 35 36 36 36 35 36 34 33 31 30 28 27 25 25 26 25 25 24 23 22 23 22
23 26 29 31 33 35 37 40 42 35 29 32 36 36 36 36 35 34 31 27 25 25 29 32 32 32 32 31 29 27 26 25 24 24 23 22 20 19 19 19 20 22 23 24 26 26 27 28 29 30 31 33 34 35 35 35 33 33 34 34 33 33 33 33 33 34 35 37 37 36 36 36 34 32 31 29 28 27 25 24 24 25 25 24 22 21 22 21
23 27 31 35 37 39 41 43 43 35 29 31 35 34 34 33 33 32 29 28 26 24 26 29 31 31 31 29 27 25 24 23 23 23 23 22 21 20 20 20 21 21 23 24 26 26 27 29 31 30 31 32 33 34 34 35 35 35 35 36 36 35 35 35 35 36 36 37 38 37 37 36 33 31 30 29 29 28 26 25 24 25 25 23 20 20 21 20
26 30 35 39 41 41 42 42 39 33 29 30 30 32 33 32 30 29 27 27 27 27 26 27 28 29 29 28 26 25 25 25 25 26 26 25 25 25 25 25 25 26 26 28 29 28 27 28 30 31 33 35 35 35 34 34 34 35 35 36 36 36 35 35 35 35 35 34 35 35 35 35 33 31 31 31 31 30 29 27 26 26 25 24 23 23 23 23
30 34 37 39 39 38 38 38 35 31 29 27 26 27 29 27 25 24 23 24 26 26 25 25 25 26 27 27 28 27 27 28 29 29 29 29 28 28 28 28 28 28 29 30 30 30 29 28 28 30 33 36 37 38 37 36 36 36 36 36 36 34 33 33 33 32 31 31 31 33 34 36 35 34 32 32 32 32 32 30 29 27 27 26 26 26 25 26
Wind_Direction
258 258 257 256 256 255 255 254 255 255 255 254 253 252 251 251 251 251 251 250 249 246 243 241 241 241 241 242 244 245 244 242 239 236 234 233 230 229 228 228 227 227 226 228 229 229 230 232 233 233 234 235 237 239 239 239 239 237 235 233 233 236 241 245 247 248 248 249 249 251 252 253 254 255 257 258 259 260 262 263 263 264 266 268 269 272 274 277
258 258 257 257 256 255 254 254 254 254 254 254 254 253 252 251 251 250 251 251 251 249 246 242 241 240 240 241 242 243 243 243 240 237 236 233 230 230 229 228 228 227 226 227 229 230 231 232 233 234 235 236 237 239 239 240 239 236 234 233 233 236 240 242 245 246 248 249 250 252 254 255 255 256 256 257 259 260 260 258 258 261 264 266 269 273 276 279
257 257 257 256 256 255 255 254 253 253 253 253 253 253 252 252 251 250 250 250 251 251 248 244 241 240 239 240 240 241 242 243 241 237 237 235 231 231 231 230 230 229 227 228 230 231 232 234 235 236 237 239 239 240 241 240 238 236 236 234 235 237 239 240 242 244 247 249 251 253 256 257 256 256 256 256 258 258 256 256 258 261 263 266 270 273 276 281
256 256 256 256 255 255 255 254 253 253 252 252 252 252 252 252 252 251 251 250 250 251 250 246 242 239 238 239 239 240 240 242 241 238 238 237 233 231 232 232 232 231 229 229 231 232 234 236 237 239 240 242 242 243 244 242 239 238 236 235 236 236 237 239 241 244 247 249 252 255 256 257 257 256 257 257 255 252 252 254 258 260 262 266 270 273 278 281
256 255 255 255 255 255 254 254 253 252 252 252 251 252 252 252 252 252 252 251 250 250 250 248 243 239 238 238 238 239 239 239 239 238 238 237 234 232 232 232 232 232 231 231 232 233 235 236 237 239 240 242 243 243 243 242 240 237 235 237 238 237 238 240 243 245 248 250 252 255 256 256 257 257 257 255 249 247 249 252 255 259 263 266 270 275 280 278
256 255 255 254 254 254 254 254 253 252 252 251 251 251 252 252 252 252 252 252 251 250 249 249 245 240 237 236 237 237 238 238 238 237 237 237 235 232 232 232 232 233 233 232 232 233 234 235 237 238 239 240 240 238 238 238 237 234 235 239 240 240 241 243 245 247 249 251 252 254 255 255 255 254 252 248 245 245 247 250 253 257 261 266 273 279 278 277
257 256 255 254 253 253 253 253 252 252 251 251 251 251 251 252 252 252 252 252 252 250 249 248 246 241 237 235 235 235 236 237 238 237 236 237 235 233 232 232 232 233 233 233 232 232 233 234 235 236 237 238 237 235 234 234 233 234 237 240 240 242 243 244 247 248 249 250 252 253 253 252 250 249 247 245 245 246 247 250 252 256 261 270 277 276 275 280
258 256 255 254 253 253 252 252 252 252 251 251 250 251 251 252 253 253 253 253 252 251 249 247 246 242 237 234 234 233 234 236 237 236 235 236 235 233 232 233 232 232 233 232 231 231 231 232 233 234 235 234 233 233 234 233 231 231 236 239 240 241 241 243 245 246 247 248 250 250 249 250 249 247 243 241 242 245 248 250 253 258 265 273 273 272 277 284
260 258 256 255 253 252 252 252 252 251 251 250 250 251 252 253 253 254 254 254 253 251 249 246 245 242 238 234 233 232 233 235 235 235 235 235 235 233 233 233 232 231 232 231 231 231 231 231 231 231 232 231 232 233 234 234 229 229 234 238 240 241 240 242 243 244 244 244 246 245 245 248 248 247 241 236 239 242 248 252 256 261 266 269 269 273 280 282
262 260 258 256 254 253 252 251 251 251 251 250 251 251 252 253 254 254 254 254 253 251 249 246 244 242 238 234 231 231 232 233 234 234 234 234 234 233 232 232 232 231 231 231 230 230 230 230 229 229 230 231 232 233 234 233 228 230 237 240 242 241 241 243 242 243 242 239 239 240 240 244 246 245 237 236 241 244 247 252 257 263 267 267 268 274 278 277
262 260 259 257 255 254 252 251 251 251 251 251 252 253 253 254 254 255 255 254 252 250 248 245 243 240 238 233 230 230 231 232 233 233 233 232 232 232 231 232 232 231 231 231 230 229 228 228 228 229 230 231 232 234 235 233 229 232 239 241 241 240 240 242 243 244 243 236 232 233 236 241 244 240 236 239 244 245 247 253 259 265 267 268 271 273 273 273
262 260 259 258 256 254 253 252 251 251 251 252 253 254 254 254 254 254 254 253 251 249 246 245 242 239 237 233 229 229 230 231 232 233 232 231 230 230 230 231 231 231 230 229 228 228 227 228 228 229 230 231 232 233 234 233 232 233 238 239 237 238 240 242 244 246 243 232 224 228 234 239 242 240 240 243 244 246 250 257 263 267 269 270 271 270 266 269
262 261 259 257 256 255 253 252 252 251 251 252 253 254 254 254 254 253 252 251 249 247 245 243 240 237 235 232 229 228 228 229 232 233 233 231 229 228 228 228 229 229 229 227 226 226 226 228 228 228 229 230 231 233 233 232 232 231 234 236 235 237 238 240 242 241 235 221 217 226 232 235 238 240 243 245 246 250 255 260 265 267 270 270 268 264 260 262
261 260 259 258 256 254 253 252 252 251 251 251 252 252 252 252 252 251 250 248 246 245 243 241 237 235 232 229 228 226 226 229 232 233 232 230 227 226 225 226 226 227 227 226 226 226 226 226 226 227 228 229 231 232 232 231 230 229 231 233 233 234 234 235 235 230 222 216 217 224 229 231 234 238 242 246 248 251 256 261 264 267 269 269 266 257 254 258
260 259 258 257 256 254 253 252 251 251 250 250 249 249 249 249 249 247 246 245 243 242 240 237 234 232 229 227 227 226 226 229 231 231 230 228 226 224 223 223 223 224 224 224 225 225 226 225 225 225 226 227 229 230 231 228 226 226 228 227 226 226 226 226 224 219 217 219 219 222 226 228 231 235 240 244 246 249 255 261 264 264 264 267 259 247 249 256
260 258 256 255 254 253 252 251 250 249 248 247 247 246 246 245 244 243 242 241 240 238 236 233 230 229 227 225 225 224 224 228 229 229 228 226 224 222 221 220 220 222 222 222 222 223 224 224 224 224 224 224 226 228 228 225 223 223 223 220 216 216 219 220 217 214 216 218 216 217 224 229 232 236 240 242 244 248 254 259 260 257 256 255 246 242 247 253
259 258 255 253 252 251 250 249 248 247 245 244 243 243 242 240 239 239 238 237 236 234 231 228 226 226 224 223 224 223 223 225 227 227 226 224 222 220 219 218 218 219 221 220 219 219 220 221 222 221 221 221 223 226 225 220 218 220 219 212 208 213 218 217 213 212 213 213 209 213 224 230 235 239 242 243 244 247 251 253 255 255 253 247 238 238 244 250
259 257 255 252 250 248 247 246 245 243 241 239 238 238 236 236 235 235 233 233 232 229 227 224 223 223 222 221 222 221 221 223 225 225 225 223 220 219 218 216 215 216 219 219 217 217 216 217 218 217 217 217 219 222 221 216 212 214 212 205 205 213 217 215 212 213 214 214 211 214 222 229 234 239 244 245 245 246 249 253 255 255 255 252 243 240 247 258
258 256 253 251 248 246 244 242 240 238 236 234 233 232 231 231 231 230 229 229 228 226 224 222 221 222 220 219 220 220 220 222 223 223 222 222 219 217 217 215 213 213 216 217 216 215 215 215 215 215 216 215 216 217 217 213 210 209 207 205 207 212 213 211 212 216 219 219 215 214 218 224 229 235 240 243 245 247 248 251 253 253 256 259 255 250 260 278
256 254 251 248 244 241 239 236 233 230 229 228 227 226 226 225 225 224 225 225 223 220 219 219 218 219 218 218 218 219 221 222 223 222 220 219 218 215 216 216 214 213 213 215 215 215 214 213 214 215 214 212 213 213 213 213 211 209 207 208 210 212 212 209 212 218 223 223 218 214 214 216 221 228 233 237 242 246 248 249 249 251 256 260 261 262 274 283
253 250 247 243 238 235 232 229 225 223 222 222 221 220 219 219 220 220 220 219 217 216 216 216 216 217 217 217 218 218 219 219 220 222 219 216 215 213 213 214 213 212 212 213 213 213 214 214 214 213 211 211 212 212 210 211 212 211 210 211 211 211 211 209 213 220 225 224 217 215 211 207 213 220 227 236 242 246 247 246 247 252 257 258 262 268 273 272
249 245 241 236 232 227 223 220 219 217 216 215 214 214 215 215 217 217 216 214 213 213 214 215 216 218 218 218 219 219 219 216 215 220 219 215 214 212 210 211 210 208 209 210 211 212 214 214 212 210 211 213 214 211 207 209 212 211 212 213 211 208 207 209 216 223 227 224 218 217 212 205 210 216 225 235 243 248 248 246 248 253 258 262 265 265 265 265
243 238 232 227 223 217 213 212 212 211 210 210 210 212 213 213 213 213 211 210 210 210 211 212 213 216 218 218 218 219 218 213 210 217 219 214 213 212 210 209 207 206 207 208 210 212 213 210 207 208 210 211 211 208 203 207 211 212 214 214 209 205 205 209 218 225 228 224 218 217 214 211 207 212 229 236 238 246 253 255 259 263 265 265 264 262 265 267
234 228 222 217 212 209 206 205 207 207 206 206 209 211 210 210 210 209 208 207 208 208 209 210 210 213 217 216 216 215 213 209 207 213 216 214 212 211 210 208 206 207 207 208 209 210 208 205 204 207 209 210 209 205 202 205 209 211 214 213 207 206 206 210 218 223 226 223 219 218 219 217 205 210 235 244 239 240 251 261 266 270 270 267 267 269 271 273
220 215 212 207 204 203 199 199 203 204 204 205 207 208 207 207 207 206 206 205 207 208 208 210 209 211 215 215 213 211 208 206 205 208 212 213 213 211 210 208 206 206 207 208 208 207 206 205 206 209 210 211 210 207 205 207 210 211 213 209 204 206 208 212 218 220 224 224 223 224 223 221 218 226 244 252 249 243 246 259 266 268 270 271 273 274 273 274
208 204 203 201 201 200 195 197 201 201 203 205 204 203 203 202 202 203 204 204 208 209 209 210 208 211 217 216 211 208 206 204 203 205 207 209 211 210 209 208 206 206 206 207 206 204 207 207 208 210 212 212 211 209 208 209 212 213 213 206 202 207 209 213 217 218 220 223 225 228 227 228 233 242 250 254 256 253 247 257 265 264 265 269 271 271 268 269
198 198 198 200 201 200 197 197 200 200 202 202 199 198 197 197 199 201 204 206 210 210 210 210 207 211 218 214 206 205 204 203 202 203 203 205 207 206 206 206 206 207 206 206 204 204 208 208 208 210 212 213 212 211 210 211 214 215 212 205 202 207 209 213 218 218 220 223 225 229 230 232 240 247 252 254 258 259 256 259 264 264 261 261 264 265 262 261
197 196 199 202 199 197 195 196 200 200 197 196 193 192 192 193 197 200 204 207 210 211 210 208 205 209 212 205 199 198 200 201 201 201 200 202 204 204 203 203 203 206 208 207 204 205 208 207 208 209 211 213 214 213 212 212 213 212 210 205 203 206 209 215 220 221 223 223 223 228 230 232 242 249 251 252 256 260 263 263 263 263 261 261 263 262 258 256
197 194 198 201 195 191 190 194 198 194 190 190 189 189 189 191 195 200 203 205 207 209 208 204 203 204 202 196 192 190 193 197 197 197 198 199 201 200 200 200 200 202 203 203 203 204 205 204 206 208 209 211 211 212 213 213 210 207 207 205 203 207 210 216 221 222 223 222 222 227 231 235 244 250 249 250 255 259 262 264 263 262 263 264 266 266 265 262
196 195 195 195 190 186 186 192 195 190 187 188 185 185 187 191 195 199 202 202 201 202 201 199 198 199 197 192 188 188 191 192 192 193 195 197 198 196 194 195 198 200 196 195 200 202 201 203 206 208 209 208 208 210 212 211 207 204 205 206 205 208 211 215 219 222 222 222 223 226 231 237 243 247 248 249 253 258 262 264 264 263 263 264 266 269 274 274
201 198 191 189 189 185 185 189 191 188 187 184 181 185 188 191 195 198 199 196 192 192 192 193 193 195 195 190 188 191 191 189 191 194 194 195 196 194 195 196 197 198 193 191 198 200 201 205 206 206 207 207 208 210 209 207 206 206 207 210 209 209 211 214 217 221 222 221 224 229 235 239 241 245 249 250 253 258 262 264 266 265 263 262 263 267 274 276
203 193 187 190 190 184 182 184 185 185 183 181 182 186 189 191 195 195 191 186 184 185 188 191 193 193 191 186 190 196 192 187 191 196 196 195 196 196 198 201 201 200 194 192 197 200 203 206 207 207 208 207 208 211 210 206 206 210 212 215 216 213 213 215 217 221 223 222 225 232 237 238 241 245 249 251 254 258 262 266 268 267 264 263 264 267 271 271
191 185 186 190 186 180 178 178 180 181 181 181 183 185 188 192 192 187 182 181 181 181 184 187 188 189 186 184 189 193 190 187 190 197 197 194 196 198 201 203 205 204 198 196 201 205 205 207 210 212 212 213 213 212 214 211 209 212 216 220 222 220 216 217 219 221 224 224 226 232 236 239 244 248 249 251 255 259 264 266 267 265 263 263 265 268 270 269
179 180 182 183 179 174 172 173 176 178 179 181 182 184 187 187 183 179 179 181 179 178 177 173 169 176 182 185 189 189 185 185 190 197 200 196 194 198 202 205 206 203 196 196 205 210 208 208 212 215 215 218 218 215 217 217 214 214 217 221 226 226 222 220 220 221 223 224 227 232 235 239 244 247 250 253 255 259 262 262 262 262 261 263 265 268 269 267
173 172 172 173 170 168 169 173 176 177 178 179 181 183 182 179 177 178 179 179 178 174 169 162 160 165 172 179 185 185 180 182 191 197 200 200 199 199 203 206 207 203 196 196 203 209 209 209 212 215 216 219 220 220 221 220 216 215 217 219 223 226 225 222 221 222 222 224 227 232 235 238 241 244 248 252 255 256 256 256 258 260 261 263 264 266 267 265
165 164 165 166 166 166 170 173 175 175 176 177 179 178 174 174 176 177 177 178 177 169 163 162 163 163 169 176 175 173 172 178 189 194 194 196 197 198 200 203 204 202 200 200 202 206 207 208 210 213 217 219 219 220 221 218 216 216 217 218 219 222 224 223 222 223 222 223 225 229 232 235 238 239 241 247 252 254 254 254 255 257 259 259 259 262 264 263
160 162 164 165 166 167 169 171 172 173 174 175 173 170 170 174 175 173 175 174 168 163 162 164 165 166 173 177 169 166 170 175 184 189 189 190 192 193 194 197 198 196 195 197 199 202 203 204 209 211 212 214 213 209 210 213 217 219 219 217 217 221 224 223 222 223 222 221 223 225 227 230 233 234 235 241 247 251 252 253 254 255 255 256 257 259 262 263
162 163 164 164 165 166 168 170 170 170 170 169 167 167 170 171 169 171 173 167 159 157 158 161 166 167 171 173 168 167 170 172 177 183 188 190 191 192 193 194 194 192 190 192 194 198 198 197 204 207 203 206 209 207 206 211 216 218 217 214 213 218 223 224 223 223 221 220 221 224 227 230 234 237 238 240 243 247 251 254 255 256 256 257 258 259 262 265
163 163 163 164 165 166 166 166 166 166 166 165 165 167 166 165 166 169 168 162 155 152 152 158 165 164 161 164 166 166 166 167 171 179 186 187 189 193 195 194 193 191 191 192 194 195 194 194 200 204 201 203 209 210 210 214 218 219 216 210 208 212 217 221 224 225 224 224 225 227 230 233 236 239 240 242 245 249 253 256 260 261 261 262 263 263 263 266
162 162 162 164 165 164 163 163 163 162 162 162 163 164 163 163 166 164 160 157 152 150 152 156 162 161 156 159 163 161 161 166 173 181 185 185 188 193 196 194 192 191 192 193 194 193 193 195 200 205 204 204 211 216 216 217 219 221 219 210 206 209 213 216 220 224 226 228 230 231 233 235 237 239 241 244 248 252 256 260 264 265 265 267 269 269 268 269
160 161 161 162 163 162 161 162 161 159 160 160 161 166 165 162 162 158 154 154 151 150 154 157 161 164 161 163 164 160 160 168 174 180 182 182 187 193 195 194 191 190 191 192 193 192 190 193 199 204 205 206 212 218 220 220 218 219 221 215 209 211 215 218 221 224 226 227 230 232 232 233 237 240 243 246 250 255 258 260 262 262 262 266 270 271 272 272
160 160 160 161 163 163 162 161 159 158 158 158 164 170 169 162 159 155 154 155 153 152 158 162 167 170 168 167 167 163 164 170 173 175 176 178 185 192 194 194 193 193 193 192 193 191 187 191 199 202 205 209 213 214 217 221 220 219 221 221 216 216 219 221 222 227 230 229 231 232 231 233 238 241 244 248 253 256 258 259 258 256 257 261 266 268 269 271
157 159 161 163 164 163 162 159 158 157 155 160 170 174 170 162 158 155 155 158 157 157 162 166 171 176 177 175 173 171 174 176 173 173 175 177 183 191 193 194 194 197 198 197 196 192 188 192 201 204 206 211 214 211 211 218 222 221 223 224 222 221 222 223 223 226 230 232 234 235 235 237 241 243 246 251 255 257 259 258 254 253 256 259 262 265 267 269
155 159 163 165 162 161 161 157 156 155 155 164 174 175 170 164 161 160 160 161 163 164 167 172 176 180 184 182 178 178 182 182 176 175 179 184 187 191 194 196 195 197 201 202 200 197 193 196 203 206 208 212 215 213 211 214 218 221 223 226 226 225 225 227 227 227 229 232 235 237 238 242 245 247 250 252 254 256 257 255 255 256 256 257 260 264 266 266
159 162 160 161 160 159 158 156 156 156 159 169 174 173 171 167 165 165 165 167 170 173 176 180 180 183 187 185 181 180 184 186 183 180 183 190 196 196 196 199 199 199 202 204 203 200 198 201 205 208 212 216 220 219 217 217 219 221 223 227 230 230 229 230 231 232 233 235 238 239 241 245 248 250 252 254 255 257 256 254 256 257 254 257 266 268 265 263
163 162 156 158 159 157 158 160 160 159 162 170 173 172 171 170 170 171 170 172 175 177 181 185 184 184 188 188 186 186 187 188 190 190 190 196 202 203 203 203 205 206 207 208 208 203 200 203 208 212 217 223 226 226 224 224 225 226 227 229 232 234 234 232 234 237 239 240 242 243 245 247 249 251 254 257 259 258 256 256 258 257 255 261 270 271 267 265
164 163 158 158 158 159 164 166 162 157 160 170 172 170 172 174 175 175 174 174 176 180 184 187 188 187 188 191 192 194 195 194 195 198 201 205 209 212 212 210 210 212 212 213 214 211 207 207 210 215 221 226 229 229 229 229 228 228 230 230 231 233 235 234 234 237 242 245 246 247 248 248 249 252 255 257 259 259 257 258 258 257 256 259 266 271 270 265
161 164 162 160 160 163 167 167 161 156 161 171 173 172 172 175 178 178 177 176 177 181 185 188 190 189 190 193 196 200 204 204 204 205 207 211 217 221 223 221 219 218 218 219 220 219 217 216 216 217 221 227 231 233 233 233 232 230 231 232 232 231 233 235 235 238 241 245 248 250 250 250 251 253 255 256 257 258 258 257 258 258 258 259 262 265 264 260
159 164 164 162 164 167 168 167 164 162 166 173 175 175 173 174 177 179 180 180 179 180 184 189 193 194 194 196 200 206 210 212 213 213 213 215 219 224 227 228 227 227 227 230 231 230 230 230 228 225 225 227 231 233 235 236 236 235 233 232 232 233 235 237 239 241 242 244 248 250 251 251 252 251 252 253 255 258 259 259 258 259 260 260 258 254 252 254
160 164 164 164 167 170 170 168 166 167 172 174 175 178 177 176 179 182 186 191 193 193 192 193 196 200 202 204 207 211 216 219 219 219 220 222 224 226 228 230 232 233 234 237 238 238 238 237 236 234 233 233 233 234 236 237 238 240 239 238 238 239 240 241 242 244 245 245 246 248 250 250 250 249 250 252 255 258 259 258 258 257 256 254 251 245 244 250
162 162 164 166 169 171 171 169 168 171 176 174 172 175 178 179 182 186 190 196 202 205 203 200 201 204 209 213 216 219 221 223 224 224 225 227 228 230 233 235 239 241 241 240 239 238 238 239 238 236 236 237 236 235 236 236 237 238 240 242 244 244 244 244 244 246 248 247 247 248 248 247 246 248 252 255 256 257 257 258 259 255 250 248 247 246 248 253
160 160 164 167 170 171 170 169 171 174 175 174 173 173 174 178 184 188 191 195 199 202 203 204 205 208 212 216 221 225 227 228 228 229 230 232 233 235 237 239 243 246 246 244 242 240 239 240 238 236 237 239 238 236 235 237 238 241 243 244 243 243 245 246 247 247 247 246 247 249 248 247 247 250 254 257 258 257 257 259 260 255 250 249 250 252 254 257
Height
5725 5725 5726 5727 5728 5729 5730 5731 5733 5734 5735 5737 5738 5740 5741 5742 5744 5745 5746 5748 5749 5751 5753 5755 5757 5758 5760 5762 5764 5765 5767 5768 5770 5773 5773 5773 5776 5779 5780 5782 5784 5786 5789 5791 5792 5794 5796 5798 5801 5803 5805 5807 5808 5810 5812 5814 5816 5818 5818 5819 5819 5820 5821 5823 5823 5824 5825 5826 5827 5828 5830 5833 5834 5835 5836 5837 5838 5838 5838 5838 5838 5838 5839 5841 5841 5842 5841 5840
5719 5720 5721 5722 5723 5724 5725 5726 5728 5729 5730 5732 5734 5735 5737 5738 5740 5741 5743 5744 5745 5747 5749 5750 5752 5754 5756 5758 5760 5761 5763 5765 5767 5770 5769 5770 5774 5776 5777 5779 5781 5783 5786 5788 5789 5791 5793 5795 5798 5800 5802 5804 5806 5808 5809 5812 5814 5815 5816 5817 5817 5817 5819 5820 5821 5822 5823 5824 5825 5826 5828 5830 5832 5833 5834 5835 5835 5836 5836 5836 5836 5837 5838 5838 5839 5839 5838 5837
5712 5713 5715 5716 5717 5718 5719 5721 5722 5724 5725 5727 5729 5730 5732 5734 5735 5737 5739 5740 5742 5743 5745 5746 5748 5750 5752 5754 5755 5758 5760 5762 5765 5766 5765 5768 5772 5772 5774 5776 5778 5780 5783 5784 5786 5789 5791 5793 5796 5797 5800 5801 5803 5805 5807 5809 5811 5812 5813 5814 5814 5815 5816 5818 5819 5820 5821 5822 5823 5824 5826 5828 5829 5831 5832 5832 5833 5834 5834 5833 5834 5835 5835 5836 5836 5835 5835 5834
5706 5707 5708 5709 5711 5712 5713 5715 5716 5718 5720 5721 5723 5725 5727 5729 5731 5733 5734 5736 5738 5739 5740 5742 5744 5745 5747 5749 5751 5754 5756 5759 5762 5762 5763 5766 5768 5770 5771 5773 5775 5777 5779 5782 5784 5786 5788 5791 5793 5795 5797 5798 5800 5803 5805 5807 5808 5809 5810 5810 5811 5812 5814 5815 5817 5818 5819 5820 5821 5823 5824 5825 5827 5828 5829 5830 5831 5831 5831 5831 5831 5832 5833 5833 5833 5832 5832 5830
5699 5700 5702 5703 5704 5706 5707 5709 5710 5712 5714 5716 5718 5720 5722 5724 5726 5728 5730 5732 5733 5735 5736 5738 5739 5741 5743 5745 5747 5750 5753 5755 5757 5759 5760 5762 5764 5767 5768 5770 5772 5774 5776 5779 5781 5783 5786 5788 5790 5792 5794 5796 5798 5800 5802 5804 5805 5806 5806 5807 5808 5810 5812 5813 5815 5816 5817 5818 5820 5821 5822 5823 5824 5826 5827 5828 5829 5829 5828 5828 5829 5829 5830 5831 5830 5830 5829 5827
5692 5693 5695 5696 5698 5699 5701 5702 5704 5706 5708 5710 5712 5714 5716 5718 5721 5723 5725 5727 5729 5730 5732 5733 5734 5736 5738 5740 5743 5746 5749 5751 5753 5755 5757 5759 5761 5764 5765 5767 5769 5771 5773 5775 5778 5781 5783 5785 5787 5789 5790 5793 5795 5797 5799 5801 5802 5802 5802 5803 5806 5808 5809 5810 5812 5813 5815 5816 5817 5818 5819 5820 5822 5823 5824 5825 5825 5825 5825 5826 5827 5827 5828 5828 5828 5827 5825 5824
5685 5686 5688 5689 5691 5692 5694 5696 5698 5699 5701 5703 5706 5708 5711 5713 5715 5717 5720 5722 5724 5725 5727 5728 5730 5732 5734 5736 5739 5742 5745 5748 5749 5751 5754 5755 5758 5760 5762 5764 5766 5768 5770 5772 5775 5777 5780 5782 5783 5785 5787 5790 5792 5794 5795 5797 5798 5798 5799 5801 5804 5806 5807 5808 5810 5811 5812 5814 5815 5816 5817 5818 5820 5821 5822 5822 5822 5822 5823 5824 5825 5825 5826 5826 5825 5824 5822 5823
5678 5679 5680 5682 5684 5685 5687 5689 5691 5693 5695 5697 5700 5702 5705 5707 5709 5712 5714 5716 5718 5720 5722 5723 5725 5727 5729 5732 5735 5737 5742 5743 5745 5748 5750 5752 5754 5757 5759 5761 5763 5765 5767 5769 5771 5774 5776 5778 5780 5782 5785 5787 5789 5790 5791 5793 5794 5795 5797 5799 5801 5803 5804 5806 5808 5809 5810 5812 5813 5814 5814 5816 5817 5818 5820 5820 5819 5819 5820 5822 5823 5823 5824 5824 5822 5821 5820 5821
5671 5672 5673 5675 5677 5678 5680 5682 5684 5686 5688 5691 5693 5696 5699 5701 5704 5706 5708 5710 5712 5714 5716 5718 5720 5722 5724 5727 5730 5734 5737 5738 5741 5745 5746 5748 5751 5753 5755 5757 5760 5762 5763 5766 5768 5771 5773 5774 5777 5779 5781 5783 5785 5786 5787 5789 5791 5793 5794 5797 5798 5800 5802 5803 5805 5807 5808 5810 5811 5811 5812 5813 5814 5816 5817 5817 5817 5817 5819 5819 5820 5821 5822 5821 5820 5819 5818 5818
5665 5666 5667 5668 5670 5671 5673 5675 5677 5679 5682 5684 5687 5690 5692 5695 5698 5700 5703 5704 5706 5709 5710 5713 5715 5717 5719 5722 5726 5730 5732 5734 5738 5741 5743 5745 5747 5750 5752 5754 5756 5759 5760 5763 5765 5768 5769 5771 5773 5775 5778 5779 5781 5782 5784 5787 5789 5790 5792 5794 5796 5798 5799 5800 5802 5804 5806 5807 5808 5809 5810 5811 5811 5814 5814 5814 5815 5816 5817 5817 5818 5819 5819 5819 5818 5817 5816 5815
5658 5659 5660 5661 5663 5665 5666 5668 5670 5672 5675 5678 5680 5683 5686 5689 5691 5694 5697 5698 5701 5703 5705 5707 5710 5712 5715 5718 5722 5726 5728 5730 5733 5736 5739 5741 5743 5746 5748 5750 5753 5755 5757 5760 5762 5763 5765 5767 5770 5772 5774 5776 5777 5779 5782 5785 5787 5788 5789 5792 5793 5795 5796 5798 5800 5802 5804 5805 5806 5807 5807 5808 5809 5811 5811 5812 5813 5814 5815 5815 5816 5816 5816 5816 5815 5815 5813 5812
5651 5652 5653 5654 5656 5658 5659 5661 5663 5666 5668 5671 5674 5676 5679 5682 5685 5688 5690 5692 5695 5697 5699 5702 5705 5707 5710 5714 5718 5721 5723 5726 5729 5732 5735 5737 5739 5742 5745 5747 5749 5752 5754 5756 5758 5759 5761 5764 5767 5769 5771 5773 5775 5777 5780 5782 5784 5785 5787 5789 5790 5792 5794 5797 5799 5800 5802 5803 5804 5804 5804 5805 5807 5808 5808 5809 5811 5812 5813 5813 5814 5814 5813 5814 5813 5812 5811 5810
5643 5645 5646 5647 5649 5650 5652 5654 5656 5659 5661 5664 5667 5670 5672 5675 5679 5682 5684 5686 5689 5691 5694 5697 5699 5702 5705 5710 5714 5716 5718 5722 5725 5729 5731 5733 5736 5738 5741 5743 5746 5748 5751 5752 5753 5755 5758 5761 5764 5766 5768 5770 5772 5775 5778 5780 5781 5782 5784 5786 5788 5791 5793 5795 5797 5798 5799 5801 5801 5801 5801 5803 5805 5805 5806 5807 5809 5810 5811 5811 5812 5811 5811 5811 5811 5810 5808 5807
5636 5637 5638 5639 5641 5643 5645 5647 5649 5652 5654 5657 5660 5663 5666 5669 5672 5675 5678 5680 5683 5686 5689 5691 5694 5697 5701 5706 5708 5711 5715 5718 5722 5725 5726 5729 5732 5734 5737 5739 5742 5745 5747 5748 5750 5752 5755 5758 5761 5763 5765 5768 5770 5772 5775 5777 5778 5780 5781 5784 5787 5790 5792 5793 5794 5795 5796 5797 5797 5798 5799 5801 5802 5803 5804 5805 5807 5808 5808 5809 5809 5809 5809 5809 5808 5808 5806 5805
5627 5629 5630 5631 5633 5635 5637 5639 5641 5644 5647 5650 5653 5655 5659 5662 5666 5669 5671 5674 5677 5680 5683 5686 5689 5693 5697 5702 5703 5707 5712 5715 5718 5720 5722 5725 5727 5730 5732 5735 5738 5740 5742 5744 5747 5750 5752 5755 5758 5760 5763 5765 5768 5770 5771 5774 5775 5777 5779 5783 5786 5788 5790 5791 5791 5792 5793 5793 5794 5796 5797 5798 5800 5800 5802 5804 5805 5805 5806 5806 5806 5806 5806 5806 5806 5805 5804 5802
5619 5620 5622 5623 5625 5627 5629 5631 5634 5637 5640 5643 5645 5648 5652 5656 5659 5662 5665 5668 5672 5675 5678 5681 5685 5689 5694 5697 5698 5703 5709 5710 5712 5715 5718 5720 5723 5725 5728 5731 5734 5736 5739 5741 5744 5747 5750 5753 5755 5757 5760 5763 5765 5766 5768 5771 5773 5775 5778 5781 5784 5786 5786 5786 5788 5789 5789 5790 5792 5794 5795 5796 5797 5799 5800 5801 5802 5803 5804 5804 5803 5804 5804 5804 5804 5803 5801 5800
5610 5612 5614 5615 5617 5619 5621 5624 5627 5630 5633 5636 5638 5642 5646 5649 5653 5656 5660 5663 5667 5670 5673 5677 5681 5685 5689 5692 5695 5700 5703 5705 5707 5711 5713 5716 5719 5721 5724 5727 5730 5733 5735 5738 5741 5744 5747 5750 5752 5755 5757 5760 5762 5763 5765 5768 5771 5774 5777 5780 5782 5782 5781 5782 5784 5785 5785 5787 5790 5791 5792 5794 5795 5796 5797 5799 5800 5801 5801 5801 5800 5801 5802 5802 5802 5800 5799 5798
5602 5603 5605 5607 5609 5612 5614 5617 5620 5623 5626 5629 5632 5636 5640 5643 5647 5651 5654 5658 5661 5665 5668 5672 5676 5680 5685 5688 5691 5695 5698 5700 5703 5706 5708 5711 5715 5718 5721 5723 5726 5729 5732 5735 5738 5741 5744 5746 5749 5752 5754 5756 5758 5760 5763 5767 5770 5772 5775 5777 5778 5777 5777 5779 5780 5781 5782 5785 5787 5788 5789 5791 5792 5793 5794 5796 5797 5798 5798 5798 5798 5799 5799 5799 5799 5798 5796 5795
5593 5595 5597 5599 5602 5604 5607 5610 5614 5617 5620 5623 5627 5631 5634 5638 5642 5646 5649 5653 5657 5661 5665 5669 5673 5677 5681 5684 5687 5691 5694 5696 5698 5701 5704 5707 5711 5715 5717 5720 5722 5725 5729 5732 5735 5738 5740 5743 5746 5749 5751 5753 5755 5758 5762 5765 5767 5769 5772 5773 5774 5774 5775 5777 5778 5779 5781 5783 5785 5786 5787 5788 5789 5791 5792 5793 5793 5795 5795 5796 5795 5795 5795 5796 5796 5795 5794 5794
5585 5587 5589 5592 5594 5597 5601 5604 5608 5611 5615 5618 5622 5626 5630 5633 5637 5641 5645 5649 5654 5657 5661 5665 5669 5673 5676 5679 5683 5687 5691 5694 5695 5698 5701 5704 5707 5711 5714 5717 5720 5722 5726 5729 5732 5735 5738 5740 5743 5746 5748 5750 5752 5756 5759 5761 5763 5765 5767 5769 5770 5772 5774 5776 5777 5777 5779 5781 5783 5784 5784 5785 5787 5789 5789 5789 5790 5791 5793 5793 5793 5792 5793 5793 5792 5793 5792 5792
5578 5580 5582 5585 5588 5591 5595 5599 5603 5606 5610 5614 5618 5622 5625 5628 5632 5636 5641 5646 5650 5654 5657 5662 5665 5669 5673 5676 5680 5684 5687 5691 5693 5695 5699 5702 5704 5707 5711 5714 5717 5720 5724 5726 5729 5732 5735 5737 5741 5743 5745 5747 5750 5752 5755 5757 5759 5761 5763 5765 5768 5770 5772 5774 5775 5775 5777 5780 5781 5781 5782 5783 5785 5785 5785 5786 5787 5788 5790 5790 5790 5790 5790 5789 5789 5790 5790 5790
5570 5573 5576 5579 5582 5586 5590 5595 5598 5603 5606 5610 5615 5618 5620 5623 5628 5633 5638 5643 5647 5651 5655 5659 5663 5667 5670 5673 5677 5681 5684 5688 5690 5692 5696 5700 5702 5705 5708 5711 5715 5718 5721 5724 5727 5729 5731 5735 5739 5741 5742 5745 5747 5749 5752 5755 5756 5758 5760 5762 5765 5768 5770 5772 5773 5774 5776 5778 5779 5779 5781 5782 5782 5782 5782 5783 5784 5785 5787 5787 5787 5787 5787 5786 5786 5787 5787 5787
5564 5567 5571 5574 5577 5582 5586 5591 5595 5599 5604 5608 5611 5612 5616 5621 5626 5631 5636 5640 5644 5648 5652 5656 5660 5663 5666 5670 5674 5678 5681 5685 5687 5689 5693 5698 5701 5703 5706 5709 5712 5715 5718 5721 5724 5727 5730 5734 5736 5738 5740 5741 5744 5746 5750 5752 5753 5756 5757 5760 5764 5766 5767 5770 5771 5771 5773 5775 5777 5778 5779 5779 5779 5778 5779 5781 5782 5782 5784 5784 5784 5784 5784 5784 5784 5784 5784 5784
5559 5562 5566 5569 5573 5578 5582 5588 5593 5597 5601 5604 5606 5609 5614 5620 5626 5630 5634 5638 5641 5645 5649 5652 5656 5658 5660 5664 5669 5674 5677 5681 5684 5687 5691 5695 5698 5701 5703 5706 5709 5712 5715 5718 5721 5725 5729 5731 5732 5734 5736 5738 5740 5744 5746 5748 5750 5753 5755 5759 5762 5763 5765 5767 5768 5768 5769 5771 5774 5775 5775 5776 5775 5775 5775 5777 5779 5781 5782 5781 5781 5781 5781 5781 5782 5782 5782 5783
5555 5559 5563 5566 5570 5575 5579 5585 5590 5593 5597 5599 5603 5609 5615 5620 5624 5628 5631 5635 5638 5642 5646 5649 5652 5655 5655 5659 5666 5670 5674 5678 5682 5684 5687 5692 5696 5698 5701 5704 5706 5709 5712 5715 5718 5722 5725 5726 5728 5730 5733 5735 5738 5741 5744 5746 5748 5750 5753 5757 5760 5761 5763 5764 5765 5765 5766 5768 5770 5771 5772 5771 5771 5772 5773 5774 5776 5779 5780 5779 5779 5779 5779 5779 5780 5780 5781 5781
5552 5556 5560 5564 5568 5572 5577 5582 5586 5590 5593 5598 5603 5609 5614 5619 5622 5625 5629 5632 5635 5639 5643 5647 5651 5653 5653 5659 5665 5668 5671 5676 5679 5681 5684 5688 5692 5695 5699 5701 5704 5706 5709 5712 5716 5719 5721 5723 5725 5728 5730 5733 5736 5739 5741 5743 5745 5747 5751 5755 5758 5759 5760 5761 5762 5762 5763 5765 5766 5767 5768 5768 5768 5770 5771 5772 5773 5776 5778 5777 5777 5777 5778 5778 5778 5779 5779 5780
5550 5554 5558 5562 5566 5570 5575 5579 5583 5587 5592 5597 5603 5608 5613 5617 5620 5623 5627 5630 5633 5637 5641 5646 5649 5651 5653 5660 5664 5667 5670 5673 5675 5678 5682 5685 5688 5691 5695 5698 5702 5704 5706 5709 5713 5716 5717 5720 5723 5725 5728 5730 5733 5736 5739 5741 5743 5746 5750 5754 5756 5756 5758 5758 5758 5759 5760 5762 5763 5764 5765 5765 5766 5768 5769 5769 5770 5772 5774 5775 5775 5776 5776 5777 5777 5777 5777 5778
5548 5552 5556 5561 5565 5568 5572 5577 5581 5586 5591 5596 5602 5607 5611 5614 5617 5620 5624 5628 5632 5636 5640 5644 5647 5649 5652 5657 5661 5665 5669 5671 5674 5677 5680 5682 5686 5689 5692 5695 5699 5701 5705 5708 5712 5713 5716 5719 5721 5723 5725 5728 5732 5735 5737 5739 5741 5745 5748 5751 5753 5754 5755 5755 5755 5757 5758 5759 5761 5762 5762 5763 5764 5766 5766 5766 5767 5769 5770 5772 5773 5773 5774 5774 5775 5775 5776 5776
5546 5551 5555 5559 5563 5567 5570 5575 5579 5584 5589 5595 5600 5604 5608 5611 5614 5618 5622 5627 5630 5634 5638 5641 5643 5646 5650 5655 5659 5663 5666 5668 5672 5675 5678 5680 5683 5687 5690 5693 5696 5698 5702 5707 5709 5711 5713 5715 5717 5720 5722 5726 5729 5732 5734 5736 5739 5742 5744 5747 5750 5751 5752 5752 5753 5754 5756 5757 5758 5759 5759 5761 5763 5763 5763 5763 5765 5766 5767 5768 5770 5770 5770 5771 5771 5772 5772 5773
5545 5549 5553 5557 5561 5565 5569 5573 5578 5583 5587 5592 5597 5601 5605 5608 5612 5616 5620 5625 5629 5632 5636 5639 5642 5645 5649 5653 5657 5660 5662 5665 5668 5671 5675 5678 5682 5685 5687 5690 5693 5695 5700 5703 5706 5707 5710 5712 5714 5718 5721 5724 5726 5728 5731 5734 5736 5738 5740 5743 5745 5747 5749 5750 5751 5752 5753 5754 5755 5756 5757 5759 5760 5760 5760 5761 5762 5763 5764 5765 5766 5767 5768 5768 5768 5768 5769 5769
5544 5548 5552 5555 5559 5563 5567 5571 5576 5581 5586 5590 5595 5599 5602 5606 5610 5614 5619 5624 5628 5630 5634 5637 5640 5644 5647 5652 5656 5657 5660 5663 5666 5668 5671 5675 5679 5682 5684 5686 5689 5692 5696 5700 5702 5705 5707 5710 5713 5716 5719 5722 5724 5725 5728 5731 5733 5735 5737 5739 5742 5744 5746 5747 5748 5748 5749 5751 5752 5753 5755 5756 5756 5757 5757 5759 5760 5761 5761 5761 5763 5764 5765 5765 5765 5766 5766 5766
5543 5547 5550 5554 5558 5562 5566 5570 5575 5580 5585 5589 5593 5597 5601 5605 5608 5613 5618 5623 5626 5629 5632 5635 5639 5643 5647 5651 5654 5656 5659 5662 5664 5666 5670 5673 5677 5680 5683 5685 5688 5691 5696 5698 5701 5704 5706 5709 5712 5715 5717 5719 5721 5723 5725 5728 5731 5733 5734 5736 5738 5740 5742 5743 5744 5745 5747 5749 5750 5751 5753 5753 5753 5754 5754 5756 5757 5758 5758 5759 5759 5761 5762 5762 5763 5764 5764 5764
5542 5546 5550 5553 5557 5561 5565 5570 5575 5579 5583 5587 5591 5596 5600 5603 5608 5614 5618 5621 5624 5627 5630 5634 5638 5642 5645 5648 5650 5654 5658 5661 5663 5665 5668 5672 5676 5679 5682 5685 5688 5693 5697 5699 5701 5703 5706 5709 5711 5713 5715 5716 5718 5720 5723 5726 5729 5731 5732 5733 5734 5736 5739 5739 5740 5742 5744 5746 5748 5749 5750 5749 5750 5751 5752 5753 5754 5755 5756 5757 5757 5757 5759 5760 5760 5761 5762 5762
5542 5545 5549 5553 5556 5560 5565 5570 5574 5578 5582 5586 5590 5594 5598 5604 5609 5614 5617 5619 5623 5626 5628 5632 5636 5639 5643 5646 5648 5651 5655 5659 5662 5664 5667 5670 5674 5677 5680 5682 5686 5691 5695 5698 5699 5701 5704 5706 5708 5710 5713 5714 5716 5719 5721 5725 5728 5729 5729 5730 5731 5733 5735 5736 5738 5740 5742 5744 5745 5746 5747 5747 5747 5748 5749 5749 5751 5753 5755 5755 5754 5754 5756 5757 5758 5759 5759 5759
5542 5545 5549 5552 5556 5561 5565 5570 5573 5577 5581 5585 5589 5594 5599 5605 5610 5613 5615 5618 5622 5625 5627 5630 5633 5637 5641 5644 5647 5651 5655 5659 5661 5663 5667 5671 5673 5676 5679 5681 5685 5689 5692 5695 5697 5699 5701 5704 5706 5709 5711 5712 5715 5718 5720 5723 5724 5725 5726 5727 5728 5730 5732 5734 5736 5738 5741 5743 5743 5744 5744 5744 5745 5746 5747 5747 5749 5751 5752 5752 5752 5752 5754 5755 5756 5756 5757 5757
5542 5545 5549 5553 5557 5561 5566 5569 5573 5577 5581 5585 5590 5595 5601 5606 5608 5612 5615 5618 5621 5624 5625 5628 5631 5636 5640 5642 5645 5650 5654 5658 5660 5663 5667 5670 5673 5675 5678 5681 5684 5688 5691 5693 5695 5697 5700 5703 5705 5707 5709 5712 5715 5717 5719 5720 5721 5722 5723 5724 5726 5728 5729 5732 5733 5735 5738 5740 5741 5741 5741 5741 5742 5744 5745 5745 5747 5748 5749 5750 5750 5751 5752 5753 5753 5754 5754 5754
5543 5546 5549 5553 5557 5562 5566 5569 5573 5577 5581 5586 5591 5597 5601 5605 5608 5612 5615 5618 5621 5623 5624 5627 5630 5634 5638 5641 5645 5649 5652 5656 5659 5662 5665 5668 5670 5672 5675 5678 5681 5685 5689 5692 5693 5695 5698 5701 5703 5705 5708 5710 5713 5714 5716 5717 5718 5719 5721 5723 5725 5725 5726 5728 5730 5732 5734 5736 5737 5737 5738 5739 5740 5741 5742 5743 5744 5745 5746 5747 5748 5749 5750 5751 5751 5752 5752 5752
5543 5546 5550 5554 5558 5562 5566 5570 5574 5578 5582 5588 5592 5596 5600 5605 5608 5611 5614 5616 5619 5622 5624 5627 5630 5633 5637 5642 5645 5648 5651 5654 5657 5660 5663 5666 5668 5670 5673 5676 5679 5682 5685 5688 5690 5692 5696 5699 5700 5703 5705 5707 5709 5711 5712 5714 5715 5716 5718 5721 5722 5723 5724 5725 5727 5728 5731 5732 5733 5734 5735 5736 5737 5738 5739 5740 5741 5743 5744 5745 5746 5747 5748 5748 5749 5750 5750 5750
5544 5548 5552 5555 5559 5562 5566 5570 5575 5579 5584 5589 5592 5596 5600 5605 5608 5610 5613 5615 5618 5622 5624 5627 5630 5633 5637 5641 5645 5648 5651 5654 5656 5659 5661 5664 5667 5669 5671 5674 5677 5680 5683 5685 5687 5691 5694 5697 5698 5700 5703 5705 5707 5708 5709 5711 5712 5713 5716 5718 5719 5720 5721 5723 5725 5726 5728 5729 5730 5731 5731 5733 5734 5735 5736 5737 5739 5741 5742 5743 5743 5744 5745 5746 5746 5747 5747 5747
5546 5550 5553 5557 5560 5564 5568 5572 5576 5580 5585 5589 5593 5597 5601 5605 5608 5610 5613 5615 5618 5622 5625 5628 5631 5633 5636 5640 5643 5647 5651 5654 5656 5658 5660 5664 5666 5668 5671 5673 5676 5679 5681 5684 5687 5690 5693 5695 5697 5699 5701 5703 5704 5705 5707 5709 5710 5712 5713 5715 5716 5717 5718 5720 5722 5724 5725 5726 5727 5728 5729 5730 5732 5732 5733 5735 5736 5738 5740 5741 5741 5742 5742 5742 5743 5743 5744 5744
5548 5551 5555 5559 5563 5566 5569 5573 5577 5582 5586 5590 5594 5598 5602 5605 5608 5610 5613 5616 5619 5622 5625 5628 5631 5633 5636 5639 5643 5646 5649 5652 5654 5657 5660 5662 5665 5667 5670 5673 5676 5678 5680 5682 5685 5688 5691 5693 5695 5697 5699 5701 5702 5703 5705 5707 5709 5710 5711 5713 5715 5715 5717 5718 5720 5721 5722 5724 5725 5725 5727 5728 5729 5730 5732 5733 5734 5736 5737 5738 5739 5739 5739 5740 5740 5741 5741 5741
5550 5553 5557 5560 5564 5568 5571 5575 5579 5583 5587 5592 5595 5599 5603 5605 5608 5610 5613 5616 5619 5622 5626 5628 5631 5634 5637 5640 5643 5646 5648 5650 5653 5656 5659 5661 5663 5666 5669 5672 5675 5677 5679 5681 5684 5686 5689 5691 5692 5694 5696 5698 5700 5702 5704 5706 5707 5709 5710 5711 5713 5714 5715 5716 5718 5719 5721 5722 5723 5723 5725 5725 5726 5728 5730 5731 5732 5733 5735 5736 5736 5737 5737 5738 5738 5739 5739 5739
5553 5556 5559 5562 5565 5569 5573 5576 5580 5584 5589 5594 5596 5599 5603 5605 5608 5611 5614 5617 5620 5622 5626 5629 5631 5635 5638 5641 5644 5646 5648 5649 5652 5656 5658 5660 5663 5665 5668 5671 5673 5676 5678 5680 5682 5685 5688 5689 5690 5692 5694 5696 5698 5700 5702 5704 5705 5707 5708 5709 5710 5712 5714 5715 5716 5718 5719 5720 5721 5722 5723 5723 5724 5727 5728 5729 5730 5731 5732 5733 5734 5735 5735 5736 5736 5736 5737 5737
5555 5558 5561 5564 5568 5571 5575 5578 5582 5586 5591 5594 5597 5600 5603 5606 5609 5612 5614 5617 5620 5623 5626 5629 5632 5635 5638 5641 5644 5646 5648 5649 5651 5654 5657 5660 5662 5664 5667 5669 5672 5674 5677 5679 5681 5683 5686 5687 5688 5690 5692 5693 5694 5696 5699 5701 5703 5705 5706 5707 5708 5710 5711 5713 5714 5716 5717 5718 5719 5720 5720 5721 5723 5725 5726 5727 5728 5729 5730 5731 5731 5732 5733 5734 5734 5734 5734 5734
5558 5560 5563 5567 5570 5573 5577 5580 5583 5588 5592 5595 5597 5600 5603 5607 5610 5613 5615 5617 5620 5623 5626 5629 5632 5635 5638 5641 5643 5646 5648 5650 5651 5653 5656 5659 5661 5663 5665 5668 5671 5673 5675 5678 5680 5682 5684 5686 5686 5688 5690 5691 5692 5695 5697 5699 5701 5703 5704 5705 5707 5708 5709 5711 5712 5714 5715 5716 5717 5718 5718 5719 5721 5722 5723 5724 5725 5726 5727 5728 5729 5730 5731 5732 5732 5732 5732 5732
5559 5562 5565 5568 5571 5575 5579 5582 5585 5589 5593 5595 5598 5601 5604 5608 5611 5614 5615 5618 5621 5624 5626 5628 5632 5635 5638 5640 5643 5645 5647 5649 5652 5654 5656 5658 5660 5662 5665 5667 5670 5672 5675 5677 5679 5681 5683 5684 5686 5687 5689 5690 5692 5694 5696 5698 5700 5701 5702 5704 5705 5706 5707 5709 5710 5711 5712 5713 5714 5715 5716 5717 5719 5720 5721 5722 5723 5724 5725 5726 5726 5727 5728 5729 5730 5730 5729 5729
5560 5564 5567 5570 5573 5577 5580 5583 5587 5591 5594 5597 5599 5602 5606 5609 5612 5614 5617 5620 5623 5625 5627 5629 5632 5635 5638 5640 5642 5645 5647 5648 5651 5654 5656 5658 5660 5662 5665 5667 5669 5671 5674 5676 5678 5680 5681 5683 5685 5687 5688 5688 5689 5691 5693 5695 5697 5699 5700 5701 5703 5704 5705 5707 5708 5709 5710 5710 5711 5712 5713 5715 5716 5717 5718 5719 5719 5721 5722 5722 5723 5724 5725 5726 5727 5727 5727 5726
5562 5565 5568 5572 5575 5578 5581 5585 5589 5592 5595 5599 5602 5604 5607 5610 5613 5616 5619 5621 5624 5626 5628 5630 5632 5635 5638 5641 5643 5644 5646 5648 5650 5653 5656 5658 5660 5662 5664 5666 5668 5670 5672 5674 5676 5678 5680 5682 5683 5685 5686 5687 5687 5688 5690 5692 5694 5696 5697 5699 5700 5702 5703 5704 5705 5706 5707 5708 5708 5710 5711 5712 5713 5714 5715 5715 5716 5717 5718 5719 5719 5721 5722 5723 5724 5724 5723 5723
5563 5566 5569 5573 5576 5579 5583 5587 5591 5594 5597 5600 5602 5605 5608 5612 5615 5618 5620 5622 5624 5626 5628 5630 5632 5635 5638 5641 5643 5645 5647 5649 5651 5653 5655 5658 5660 5661 5663 5665 5667 5669 5671 5672 5673 5675 5677 5679 5681 5683 5684 5685 5685 5686 5687 5688 5690 5692 5694 5696 5698 5699 5700 5702 5703 5703 5704 5705 5705 5707 5708 5708 5710 5711 5712 5712 5713 5714 5715 5716 5716 5717 5718 5719 5720 5720 5720 5721
5565 5568 5571 5574 5577 5580 5584 5587 5592 5595 5598 5600 5603 5606 5610 5613 5616 5619 5621 5623 5625 5627 5629 5631 5633 5635 5638 5641 5643 5645 5647 5649 5651 5653 5655 5657 5659 5661 5662 5664 5665 5667 5668 5669 5670 5672 5674 5675 5677 5680 5682 5682 5683 5684 5685 5686 5688 5689 5691 5692 5694 5696 5697 5699 5700 5701 5701 5702 5703 5704 5705 5705 5707 5708 5709 5709 5710 5711 5711 5712 5713 5714 5715 5716 5716 5717 5718 5718
5567 5570 5573 5576 5578 5582 5585 5590 5593 5596 5599 5602 5605 5608 5611 5614 5617 5620 5622 5624 5625 5627 5629 5631 5633 5635 5638 5640 5642 5644 5646 5647 5649 5651 5653 5655 5657 5658 5660 5661 5662 5663 5664 5665 5666 5668 5671 5672 5674 5676 5678 5678 5679 5681 5682 5683 5685 5686 5687 5688 5690 5692 5693 5695 5696 5697 5698 5699 5700 5701 5701 5702 5703 5705 5705 5706 5707 5707 5708 5709 5710 5711 5711 5712 5713 5714 5715 5715
5569 5572 5575 5578 5581 5584 5588 5592 5595 5597 5600 5604 5606 5610 5613 5616 5618 5620 5622 5624 5625 5627 5629 5631 5633 5635 5637 5639 5640 5642 5643 5644 5645 5648 5650 5652 5654 5656 5658 5659 5660 5660 5660 5661 5662 5665 5667 5669 5670 5673 5674 5674 5676 5678 5679 5680 5682 5682 5684 5685 5686 5688 5689 5691 5692 5694 5695 5695 5696 5697 5697 5698 5700 5701 5702 5702 5702 5703 5704 5705 5706 5707 5708 5708 5709 5710 5711 5712